Content
SEND FEEDBACK

Daily
Averages
Monthly
Summary
United States of America

WATERVILLE, WASHINGTON


Home > North America > United States > Washington
Elevation: 2618 feet     Latitude: 47 39N     Longitude: 120 04W

WEATHER
 
SELECT A DAY
Number of Records: 244,368;   Date Range: 1/1/95 - 8/12/14
 
SHARE

PRINT THIS DATA

[ ← Previous Day ]
WEATHER ALMANAC - FEBRUARY 13, 2013
[ Next Day → ]
[ °C ]   °F
Weather ElementAverageHighLow
Temperature43 °F53.1 °F (2:55 pm)34 °F (4:55 am)
Dewpoint26 °F30 °F (8:55 am)21.9 °F (3:55 pm)
Humidity53.7 %79 % (4:55 am)32 % (2:55 pm)
Barometer30.26 in30.38 in (10:55 pm)30.14 in (2:55 am)
Wind Speed6.4 mph13.8 mph (3:55 pm)
Wind Gust19.6 mph (1:55 pm)
Weather ElementAverage
Visibility10 mi
Wind DirectionSSW (187 °)

Weather ElementTotal
Precipitation---
Heating Degree Days21.5 (Base 65)
Averaged from 23 records on February 13, 2013
WEATHER CONDITIONS BREAKOUT
WIND DIRECTION BREAKOUT
WEATHER BY HOUR - FEBRUARY 13, 2013
[ °C ]   °F
Local TimeTemperatureDewpointHumidityBarometerVisibilityWind DirectionWind SpeedGust SpeedPrecipitationEventsConditions
1:55 AM35.1 °F28.9 °F78 %30.15 in10.0 miNE (40°)4.6 mphClear
2:55 AM36.0 °F28.9 °F76 %30.14 in10.0 miNE (50°)3.5 mphClear
3:55 AM35.1 °F28.0 °F76 %30.15 in10.0 miENE (60°)5.8 mphClear
4:55 AM34.0 °F28.0 °F79 %30.17 in10.0 miEast (80°)5.8 mphClear
5:55 AM37.0 °F28.9 °F73 %30.19 in10.0 miENE (60°)3.5 mphClear
6:55 AM37.9 °F28.9 °F70 %30.20 in10.0 miNE (50°)5.8 mphClear
7:55 AM37.9 °F28.0 °F68 %30.23 in10.0 miNorth (350°)3.5 mphClear
8:55 AM41.0 °F30.0 °F65 %30.25 in10.0 miCalmClear
9:55 AM48.0 °F28.9 °F48 %30.26 in10.0 miCalmClear
10:55 AM48.0 °F28.9 °F48 %30.27 in10.0 miWSW (250°)6.9 mphClear
11:55 AM48.9 °F28.0 °F44 %30.26 in10.0 miWNW (290°)9.2 mphClear
12:55 PM51.1 °F25.0 °F36 %30.25 in10.0 miWest (280°)9.2 mphClear
1:55 PM52.0 °F24.1 °F34 %30.25 in10.0 miNW (310°)10.4 mph19.6 mphClear
2:55 PM53.1 °F24.1 °F32 %30.26 in10.0 miWNW (300°)12.7 mphClear
3:55 PM51.1 °F21.9 °F32 %30.27 in10.0 miNW (310°)13.8 mphClear
4:55 PM50.0 °F21.9 °F33 %30.28 in10.0 miVariable5.8 mph17.3 mphPartly Cloudy
5:55 PM46.9 °F23.0 °F39 %30.30 in10.0 miWNW (290°)5.8 mphClear
6:55 PM43.0 °F23.0 °F45 %30.33 in10.0 miVariable4.6 mphClear
7:55 PM43.0 °F24.1 °F47 %30.33 in10.0 miWest (270°)8.1 mphClear
8:55 PM42.1 °F24.1 °F49 %30.34 in10.0 miNW (320°)9.2 mphClear
9:55 PM41.0 °F24.1 °F51 %30.35 in10.0 miNW (320°)6.9 mphClear
10:55 PM39.0 °F24.1 °F55 %30.38 in10.0 miNNW (330°)4.6 mphClear
11:55 PM37.9 °F24.1 °F57 %30.38 in10.0 miNNW (340°)8.1 mphClear
Hourly data recorded from KEAT, located miles away from Waterville, Washington







STORIES FROM OUR PARTNERS